Powrót do katalogu

COSMOS 2491 DEB

LostPO
NORAD 57556·DEBRIS·🇷🇺 Russia

Wystrzelony Dec 25, 2013 z Plesetsk Cosmodrome

Loading…

Następne Przeloty (najbliższe 24 godziny)

TLE

NieaktualneSource: Space-Track

Epoka: Aug 6, 2026, 01:00 UTC

1 57556U 13076AT  26218.04171062  .00001060  00000-0  68510-2 0  9994
2 57556  82.4676 128.6508 0032354   1.0844 359.0305 12.50541559147865

Śledź COSMOS 2491 DEB w czasie rzeczywistym z AllMySat

Download on the App Store